www.pogodaiklimat.ru

Погода и климат >> Архив погоды >> Мексика >> Комитан


ПОГОДА в Комитане

  • Прогноз погоды в Комитане
  • Монитор погоды в Комитане

АРХИВ ПОГОДЫ в Комитане

Время (UTC), дата Ветер
(напр.,м/с)
 
Видим.   Явления Облачность Т
(С)
Тd
(С)
f
(%)
Тe
(С)
Тes
(С)
Комфортность P
(гПа)
Po
(гПа)
Тmin
(С)
Tmax
(С)
R
(мм)
R24
(мм)
S
(см)
09 13.06 С 2 5000 м 6/0
[Ac As]
+17.0 +13.2 78 +17 +17 1004.7 838.3
15 13.06 В 1 20 км 8/3 1140 м
[Cu hum Ac trans Ci ing]
+23.4 +14.2 56 +27 +33 душно 1008.9 839.2
18 13.06 ЮЗ 1 20 км 9/6 1050 м
[Cu med, cong]
+26.2 +17.7 60 +31 +37 очень
душно
1007.7 839.0 +16.5 +26.2
21 13.06 СЗ 1 20 км в посл. час дождь 10/8 800 м
[Cu med, cong As trans]
+22.1 +15.8 67 +26 +27 душно 1005.4 837.8 0.2
00 14.06 В 1 10 км дождь 10/5 270 м
[Cb calv As op]
+18.7 +16.5 87 +21 +21 комфорт 1004.7 837.4 +16.5 +27.0 17
03 14.06 З 1 3000 м сильн. дождь 10/5 270 м
[Frnb As op]
+18.7 +16.5 87 +21 +21 комфорт 1005.8 838.3 11
06 14.06 штиль 0 4000 м дождь 10/4 <50 м
[Frnb As op]
+17.4 +13.5 78 +17 +17 1009.0 839.9 +16.5 +27.0 15
09 14.06 штиль 0 3000 м дымка {дождь} 4/4 240 м
[St]
+17.1 +15.2 89 +17 +17 1007.7 838.0 2
12 14.06 штиль 0 20 км в посл. час дождь {туман} 9/4 240 м
[St Ac trans]
+17.4 +15.4 88 +17 +17 1008.9 838.5 +16.6 +27.0 0.5
15 14.06 ЮЗ 1 20 км 8/5 600 м
[Cu hum Ac trans]
+20.8 +15.9 74 +25 +29 комфорт 1010.0 839.5
18 14.06 Ю 1 20 км 9/8 600 м
[Cu med, cong Ac trans]
+24.8 +17.8 65 +29 +33 душно 1009.0 839.4 +16.5 +25.3
21 14.06 СВ 1 18 км слаб. дождь 9/9 700 м
[Cu med, cong]
+21.6 +16.0 70 +25 +27 комфорт 1006.0 837.9 1
00 15.06 С 1 18 км слаб. дождь 9/9 270 м
[St]
+19.2 +17.1 88 +22 +22 комфорт 1005.3 837.7 +16.5 +27.5 1
03 15.06 СВ 1 5000 м {морось} 9/9 240 м
[St]
+18.3 +16.4 89 +20 +20 1006.4 839.0 0.2
06 15.06 С 1 5000 м 9/9 210 м
[St]
+16.9 +15.1 89 +18 +18 1009.1 840.0 +16.5 +27.5
09 15.06 С 1 5000 м слаб. дождь 10/10 180 м
[Frnb]
+16.6 +15.1 91 +17 +17 1008.7 838.6 1
12 15.06 С 1 5000 м в посл. час дождь 10/10 150 м
[Frnb]
+16.8 +15.5 92 +18 +18 1009.7 839.1 +16.6 +27.5 0.2
15 15.06 СВ 1 10 км {туман} 9/4 420 м
[Sc As op]
+18.9 +15.6 81 +21 +24 комфорт 1010.5 839.5
18 15.06 В 1 20 км 6/5 1080 м
[Cu med, cong Ci sp]
+24.3 +15.5 58 +27 +40 жарко 1008.9 839.0 +16.4 +24.3
21 15.06 В 1 20 км 6/5 1200 м
[Cb calv Ci]
+25.1 +15.5 55 +28 +35 жарко 1005.7 837.3
00 16.06 СВ 1 20 км 9/3 720 м
[Sc diur, vesp As op Cs]
+21.7 +15.8 69 +25 +25 комфорт 1004.4 837.0 +16.4 +25.3
03 16.06 штиль 0 3000 м слаб. дождь 10/6 270 м
[Cb cap As op]
+19.0 +16.9 88 +20 +20 1006.2 838.8 1
06 16.06 штиль 0 5000 м {дождь} 10/10 270 м
[Frnb]
+17.9 +15.7 87 +18 +18 1007.1 838.9 +16.4 +25.3 6
09 16.06 штиль 0 5000 м 8/1 270 м
[St Ac trans]
+18.2 +16.0 87 +19 +19 1006.4 837.5
12 16.06 штиль 0 20 км 8/0 2000 м
[Ac und Ci]
+17.7 +15.4 86 +18 +18 1007.7 837.9 +16.8 +25.3
15 16.06 В 1 20 км 9/6 660 м
[Cu hum Ac trans Ci]
+21.6 +16.3 72 +25 +29 комфорт 1008.1 838.4
18 16.06 ЮЗ 1 20 км 8/6 1080 м
[Cu med, cong Ci]
+28.0 +19.2 59 +34 +43 очень
душно
1006.0 837.6 +16.8 +28.0
21 16.06 ЮЗ 1 20 км 8/5 1140 м
[Cb calv Ci]
+28.1 +19.0 58 +33 +40 очень
душно
1002.2 835.7
00 17.06 СВ 1 20 км 9/3 870 м
[Cu med, cong As trans]
+22.5 +15.6 65 +26 +27 жарко 1001.9 836.1 +16.8 +29.4
03 17.06 штиль 0 5000 м 10/5 570 м
[Cb calv As op]
+20.1 +15.5 75 +22 +22 комфорт 1004.3 838.2
12 17.06 штиль 0 20 км 6/0 2000 м
[Ac und]
+18.0 +15.2 84 +18 +18 1006.9 837.7 +17.1 +29.4
15 17.06 СВ 1 20 км 5/3 800 м
[Cu hum Ci fib]
+22.3 +16.0 68 +26 +35 жарко 1007.2 838.0
18 17.06 В 1 20 км 4/3 1230 м
[Cu hum Ci fib]
+26.9 +17.0 55 +31 +48 душно 1005.8 837.6 +17.1 +27.1
21 17.06 В 2 20 км 1/1 1500 м
[Cu hum]
+27.8 +12.7 39 +29 +41 жарко 1003.1 836.5
00 18.06 В 2 20 км 8/0
[As trans Ci]
+24.1 +14.3 54 +27 +27 жарко 1001.9 836.5 +17.1 +29.0
03 18.06 штиль 0 5000 м зарница 10/9 600 м
[Cb calv Ac As]
+20.3 +15.5 74 +23 +23 комфорт 1003.8 838.1
06 18.06 штиль 0 5000 м зарница 9/5 1110 м
[Cb calv Ac As]
+19.8 +15.1 74 +22 +22 комфорт 1005.4 838.7 +17.1 +29.0
09 18.06 штиль 0 5000 м 10/9 450 м
[Sc As trans]
+18.8 +15.1 79 +20 +20 1005.4 837.6
12 18.06 штиль 0 20 км 10/10 330 м
[Sc]
+18.4 +15.8 85 +19 +19 1006.8 837.7 +18.2 +29.0
15 18.06 СВ 1 20 км 6/0
[Ci]
+22.5 +15.7 65 +26 +38 жарко 1007.9 838.6
18 18.06 В 4 20 км 5/1 2000 м
[Cu med, cong Ci]
+27.8 +11.0 35 +29 +41 жарко 1006.6 838.4 +18.0 +27.8
21 18.06 СВ 5 20 км 4/3 1500 м
[Cb cap Ci]
+27.3 +14.4 45 +30 +34 душно 1004.0 837.3
00 19.06 В 4 20 км 5/1 1080 м
[Cu med, cong Ac trans Ci]
+22.7 +13.9 58 +26 +26 жарко 1003.1 837.4 +18.0 +29.0
03 19.06 С 3 5000 м 5/5 630 м
[Sc]
+20.0 +15.0 73 +23 +23 комфорт 1004.7 838.8
06 19.06 СЗ 1 5000 м 6/6 500 м
[Sc]
+19.6 +15.4 77 +23 +23 комфорт 1006.7 839.5 +18.0 +29.0
09 19.06 штиль 0 5000 м 8/8 480 м
[Sc]
+18.7 +14.7 78 +20 +20 1006.5 838.2
12 19.06 штиль 0 20 км 8/4 360 м
[Sc Ci]
+18.0 +15.3 84 +18 +18 1007.8 838.4 +18.0 +29.0
15 19.06 В 1 20 км 5/3 900 м
[Cu med, cong Ci]
+23.6 +16.4 64 +27 +36 жарко 1007.8 836.6
18 19.06 В 1 20 км 4/4 1500 м
[Cu med, cong]
+27.3 +14.8 46 +30 +45 душно 1005.9 837.8 +18.0 +28.0
21 19.06 В 1 20 км 3/3 1500 м
[Cu med, cong]
+28.4 +14.6 43 +31 +41 душно 1003.0 836.6
00 20.06 В 1 20 км 6/5 840 м
[Cb calv Ac trans]
+22.7 +16.0 66 +27 +27 душно 1002.1 836.8 +18.0 +29.5
03 20.06 СВ 1 5000 м зарница {гроза} 6/6 570 м
[Cb calv]
+20.9 +16.2 74 +25 +25 комфорт 1004.1 838.4

 

Местоположение метеостанции Комитан (Мексика): широта 16.25 долгота -92.13 высота над уровнем моря 1646 м.

В архиве по умолчанию представлена погода в Комитане за последнюю неделю. Архивные данные за месяц целиком и за предыдущие месяцы, начиная с января 2011 года, Вы можете получить, выбрав интересующий диапазон дат из раскрывающегося списка и нажав кнопку "Ввод!".


*Определитесь, кто Вы:
робот инопланетянин человек

Внимание! Время в таблицах - всемирное. Для получения местного времени необходимо прибавить поправку, которая равна -6 ч.

Смотрите также архив погоды в соседних городах и на ближайших метеорологических станциях:

Погода в Сан-Кристобаль-де-лас-Касасе (Мексика) (77 км)
Погода в Тустла-Гутьерресе (Мексика) (120 км)
Погода в Уэуэтенанго (Гватемала) (126 км)
Погода в Тапачуле (Мексика) (148 км)
Погода в Арриаге (Мексика) (189 км)
Погода в Вильяэрмосе (Мексика) (210 км)
Погода во Флоресе (Гватемала) (251 км)
Погода в Гватемале (Гватемала) (254 км)
Погода в Пуэрто Сан Хосе (Гватемала) (295 км)
Погода в Коацакоалькосе (Мексика) (320 км)

Пояснения к столбцам:

Ветер - указаны скорость ветра в м/с - средняя за 10 мин, порывы в срок и между сроками (в фигурных скобках) и направление, откуда дует ветер: С - северный, СВ - северо-восточный, В - восточный, ЮВ - юго-восточный, Ю - южный, ЮЗ - юго-западный, З - западный, СЗ - северо-западный.
Видимость - горизонтальная дальность видимости в метрах или километрах. При видимости от 1 до 10 км при отсутствии осадков обычно наблюдается дымка, при ухудшении видимости до 1 км и менее - туман. В сухую погоду видимость может ухудшаться дымом, пылью или мглою.
Явления - указаны атмосферные явления, наблюдавшиеся в срок или в последний час перед сроком; фигурными скобками обозначены явления, наблюдавшиеся между сроками (за 1-3 часа до срока); квадратными скобками обозначены град или гололедные отложения с указанием их диаметра в мм.
Облачность - указаны через наклонную черту общая и нижняя облачность в баллах и высота нижней границы облаков в метрах; квадратными скобками обозначены формы облаков: Ci - перистые, Cs - перисто-слоистые, Cc - перисто-кучевые, Ac - высококучевые, As - высокослоистые, Sc - слоисто-кучевые, Ns - слоисто-дождевые, Cu - кучевые, Cb - кучево-дождевые. Подробнее классификацию облаков см. в Атласе облаков (PDF).
T - Температура воздуха - температура, измеренная на высоте 2 м над землей.
Td - Температура точки росы - температура, при понижении до которой содержащийся в воздухе водяной пар достигнет насыщения.
f - Относительная влажность воздуха - влажноcть воздуха, измеренная на высоте 2 м над землей.
Te - Эффективная температура - температура, которую ощущает одетый по сезону человек в тени. Характеристика душности погоды. При расчете учитывается влияние влажности воздуха и скорости ветра на теплоощущения человека.
Tes - Эффективная температура на солнце - температура, которую ощущает человек, с поправкой на солнечный нагрев. Характеристика знойности погоды. Зависит от высоты солнца над горизонтом, облачности и скорости ветра. Ночью, в пасмурную погоду, а также при ветре 12 м/с и более поправка равна нулю.
P - Атмосферное давление - приведенное к уровню моря атмосферное давление.
Po - Атмосферное давление - измеренное на уровне метеостанции атмосферное давление.
Tmin - Минимальная температура - минимум температуры воздуха на высоте 2 м над землей.
Tmax - Максимальная температура - максимум температуры воздуха на высоте 2 м над землей.
R - Количество осадков - Количество выпавших осадков за период времени, мм. При наведении курсора мыши на число - период времени, за который выпало указанное количество осадков.
R24 - Количество осадков - Количество выпавших осадков за 24 часа, мм.
S - Снежный покров - Высота снежного покрова, см. При наведении курсора мыши на число - состояние снежного покрова и степень покрытия местности в баллах.